TimeEST,TemperatureF,Dew PointF,Humidity,Sea Level PressureIn,VisibilityMPH,Wind Direction,Wind SpeedMPH,Gust SpeedMPH,PrecipitationIn,Events,Conditions,WindDirDegrees,DateUTC
12:15 AM,34.9,32.4,91,30.11,2.5,Calm,Calm,-,N/A,,Overcast,0,2013-02-23 05:15:00
1:15 AM,35.1,32.5,91,30.12,2.0,Calm,Calm,-,N/A,,Overcast,0,2013-02-23 06:15:00
1:35 AM,35.1,32.5,91,30.09,2.5,Calm,Calm,-,N/A,,Overcast,0,2013-02-23 06:35:00
1:55 AM,35.1,32.5,91,30.07,4.0,NNE,4.6,-,N/A,,Overcast,20,2013-02-23 06:55:00
2:15 AM,34.9,32.4,91,30.06,5.0,Calm,Calm,-,N/A,,Overcast,0,2013-02-23 07:15:00
2:35 AM,34.9,32.4,91,30.04,7.0,SE,3.5,-,N/A,,Overcast,140,2013-02-23 07:35:00
2:55 AM,35.1,32.5,91,30.04,5.0,NW,4.6,-,N/A,,Overcast,320,2013-02-23 07:55:00
3:15 AM,35.1,32.5,91,30.03,5.0,Calm,Calm,-,N/A,,Overcast,0,2013-02-23 08:15:00
3:55 AM,35.1,32.5,91,30.02,3.0,SSW,3.5,-,N/A,,Overcast,200,2013-02-23 08:55:00
4:35 AM,35.1,32.5,91,30.02,3.0,Calm,Calm,-,0.04,,Overcast,0,2013-02-23 09:35:00
4:55 AM,35.1,32.5,91,30.02,3.0,Calm,Calm,-,0.06,Rain,Light Rain,0,2013-02-23 09:55:00
5:35 AM,35.1,32.5,91,30.02,3.0,SE,3.5,-,0.04,,Overcast,130,2013-02-23 10:35:00
5:55 AM,35.1,32.5,91,30.00,4.0,East,3.5,-,0.06,,Overcast,90,2013-02-23 10:55:00
6:15 AM,35.1,32.5,91,29.98,7.0,NE,4.6,-,0.01,,Overcast,40,2013-02-23 11:15:00
6:35 AM,35.2,32.9,91,29.96,10.0,NE,3.5,-,0.01,,Overcast,40,2013-02-23 11:35:00
6:55 AM,35.6,33.1,91,29.97,10.0,NNW,3.5,-,0.02,,Overcast,330,2013-02-23 11:55:00
7:15 AM,35.6,33.1,91,29.97,7.0,Calm,Calm,-,N/A,,Light Drizzle,0,2013-02-23 12:15:00
7:35 AM,35.6,33.1,91,29.97,10.0,Calm,Calm,-,N/A,,Light Drizzle,0,2013-02-23 12:35:00
7:55 AM,35.6,33.1,91,29.96,7.0,Calm,Calm,-,N/A,,Overcast,0,2013-02-23 12:55:00
8:15 AM,36.3,33.8,91,29.96,7.0,Calm,Calm,-,0.01,,Overcast,0,2013-02-23 13:15:00
8:35 AM,36.7,34.2,91,29.99,7.0,Calm,Calm,-,0.01,Rain,Light Rain,0,2013-02-23 13:35:00
8:55 AM,36.9,34.3,91,29.95,7.0,Calm,Calm,-,0.02,Rain,Rain,0,2013-02-23 13:55:00
9:15 AM,37.4,34.7,90,29.96,10.0,Calm,Calm,-,N/A,,Light Drizzle,0,2013-02-23 14:15:00
9:55 AM,37.8,35.2,91,29.96,7.0,Calm,Calm,-,N/A,,Overcast,0,2013-02-23 14:55:00
10:15 AM,38.3,35.6,90,29.96,7.0,Calm,Calm,-,N/A,,Overcast,0,2013-02-23 15:15:00
10:35 AM,38.8,36.3,91,29.96,7.0,Calm,Calm,-,N/A,,Overcast,0,2013-02-23 15:35:00
11:15 AM,41.2,38.7,91,29.95,10.0,Calm,Calm,-,N/A,,Overcast,0,2013-02-23 16:15:00
11:35 AM,43.0,40.3,90,29.94,10.0,Calm,Calm,-,N/A,,Overcast,0,2013-02-23 16:35:00
11:55 AM,44.1,41.4,90,29.94,10.0,Calm,Calm,-,N/A,,Overcast,0,2013-02-23 16:55:00
12:15 PM,44.6,41.7,90,29.93,10.0,Calm,Calm,-,N/A,,Overcast,0,2013-02-23 17:15:00
12:35 PM,44.6,41.4,88,29.93,10.0,Calm,Calm,-,N/A,,Overcast,0,2013-02-23 17:35:00
1:15 PM,45.1,41.4,87,29.92,10.0,SSW,3.5,-,N/A,,Overcast,200,2013-02-23 18:15:00
1:35 PM,46.4,42.8,87,29.91,10.0,Calm,Calm,-,N/A,,Overcast,0,2013-02-23 18:35:00
1:55 PM,46.2,42.4,87,29.90,10.0,Calm,Calm,-,N/A,,Overcast,0,2013-02-23 18:55:00
2:15 PM,46.2,42.3,86,29.90,10.0,Calm,Calm,-,N/A,,Overcast,0,2013-02-23 19:15:00
3:35 PM,50.0,44.8,82,29.87,10.0,Calm,Calm,-,N/A,,Overcast,0,2013-02-23 20:35:00
3:55 PM,52.0,46.8,82,29.87,10.0,Calm,Calm,-,N/A,,Mostly Cloudy,0,2013-02-23 20:55:00
4:15 PM,50.5,44.8,81,29.87,10.0,Calm,Calm,-,N/A,,Mostly Cloudy,0,2013-02-23 21:15:00
4:35 PM,49.6,44.8,83,29.87,10.0,Calm,Calm,-,N/A,,Mostly Cloudy,0,2013-02-23 21:35:00
4:55 PM,49.3,45.3,86,29.87,10.0,Calm,Calm,-,N/A,,Overcast,0,2013-02-23 21:55:00
5:15 PM,48.0,43.7,85,29.85,10.0,Calm,Calm,-,N/A,,Scattered Clouds,0,2013-02-23 22:15:00
5:35 PM,47.5,43.5,86,29.86,10.0,Calm,Calm,-,N/A,,Clear,0,2013-02-23 22:35:00
6:15 PM,45.7,42.1,87,29.84,10.0,Calm,Calm,-,N/A,,Scattered Clouds,0,2013-02-23 23:15:00
6:35 PM,45.1,41.9,88,29.83,10.0,Calm,Calm,-,N/A,,Mostly Cloudy,0,2013-02-23 23:35:00
6:55 PM,44.8,41.4,88,29.82,10.0,Calm,Calm,-,N/A,,Scattered Clouds,0,2013-02-23 23:55:00
7:15 PM,43.7,40.3,88,29.82,10.0,Calm,Calm,-,N/A,,Clear,0,2013-02-24 00:15:00
7:35 PM,43.3,40.1,88,29.82,10.0,Calm,Calm,-,N/A,,Clear,0,2013-02-24 00:35:00
8:35 PM,42.8,39.7,89,29.83,10.0,Calm,Calm,-,N/A,,Clear,0,2013-02-24 01:35:00
8:55 PM,42.8,40.1,90,29.83,10.0,Calm,Calm,-,N/A,,Mostly Cloudy,0,2013-02-24 01:55:00
9:15 PM,43.3,40.5,90,29.82,10.0,Calm,Calm,-,N/A,,Overcast,0,2013-02-24 02:15:00
9:35 PM,43.9,41.0,90,29.82,10.0,Calm,Calm,-,N/A,,Overcast,0,2013-02-24 02:35:00
9:55 PM,44.6,41.5,89,29.83,10.0,Calm,Calm,-,N/A,,Overcast,0,2013-02-24 02:55:00
10:15 PM,44.6,41.5,89,29.83,10.0,Calm,Calm,-,N/A,,Overcast,0,2013-02-24 03:15:00
10:35 PM,43.7,41.0,90,29.82,10.0,Calm,Calm,-,N/A,,Mostly Cloudy,0,2013-02-24 03:35:00
10:55 PM,43.0,40.1,90,29.82,7.0,Calm,Calm,-,N/A,,Mostly Cloudy,0,2013-02-24 03:55:00